STARLINK-11466, 62220

Orbit data source: Space-Track

STARLINK-11466, 62220 is a payload satellite owned by SpaceX/Seattle (US) in LEO that was launched on Thu, 05 Dec 2024 UTC via an FALCON 9 launch vehicle from the Air Force Western Test Range (AFWTR). Payloads include a variety of satellites, spacecraft, and rockets equipped with specific instruments for various scientific and technological missions. These include communications satellites like Starlink; space stations such as the ISS; scientific satellites like the Hubble; Earth observation satellites from companies like Planet Labs, Umbra, and HawkEye 360; GPS; miniature CubeSats for education and research; and military/defense satellites.

Loading next visibility...
STARLINK-11466 details
Identifier
62220, 2024-231C
Orbit
LEO
Last TLE update17 hours ago
Origin
Flag of USSpaceX/Seattle (US)
ManufacturerSpaceX/Seattle
MissionOperational spacecraft
Bus & MotorSTARLINK V2M, Unknown motor
Mass730 kg wet, ~700 kg dry
Launch date (UTC)
2024-12-05 (2 months ago)
Launch vehicle
FALCON 9
Launch site
Air Force Western Test Range (AFWTR)
Object type
Payload
Rocket body
Debris
Shape & HBRUnknown
Radar Cross SectionLarge (>1 m²)

Expand to show TLE details & history

TLE from 17 hours ago
0 STARLINK-11466
1 62220U 24231C   25025.08925798  .00005072  00000-0  46678-4 0  9995
2 62220  53.1590 315.7095 0001366  93.5277 266.5897 15.69722976  9237
Epoch: 2025-01-25T02:08Z
Definitive object data (Epoch: 2025-01-25T02:08:31.889Z)
Latitude-0.00003°
Longitude158.93352°
Altitude360.659 km
Speed7.694 km/s
True Right ascension21h 02m 50s
True Declination0° 00' 00"
Sunlit
Object was in daylight at TLE epoch
Visualization TLE readout
Latitude22.91252°
Longitude-43.00611°
Altitude359.888 km
Speed7.697 km/s
Apparent Right ascension08h 10m 54s
Apparent Declination-7° 37' 09"
Sunlit
Object is in full shadow
Visualization observer readout
Local Sidereal Time20:56:25
Azimuth20.546° NNE
Elevation-56.134°
Doppler factor1
Orbital elements
Apogee altitude360.871 km
Perigee altitude359.03 km
Semi-major axis6,738.087 km
Eccentricity0.0001366
Inclination53.159°
RAAN315.7095°
Arg. of periapsis93.5277°
True anomaly266.57407°
Mean anomaly266.5897°
Eccentric anomaly266.58189°
Mean motion3.92408 °/min
BSTAR0.000046678
Orbital period91.74 mins
Loading maneuver chart data...
Loading historical data...
Loading historical data...
Loading historical data...
Loading historical data...
Loading historical data...
Loading historical data...
Loading historical data...

STARLINK-11466 Visibility forecast

Observer location: undefined°, undefined

Span
Click to sort rows by Start time (UTC) header in descending order
Start Az.
Max El. time (UTC)
Max El. Az.
Max El.
End time (UTC)
End Az.
4 mins2025-01-26 04:37:27.303Z314.073° NW2025-01-26 04:39:27.303Z98.789° ESE43.363°2025-01-26 04:41:27.303Z126.427° SE
|